User: anonymous   Login
Location: Newark
(53.3333°N, 83.7500°E)
Time: 10:48:50
(UTC+00:00)
Language:

SR - Orbit

View from above orbital plane
View from above orbital plane
View from above satellite
View from above satellite

Ground track
Ground track

The orbit data is extracted from the following two-line orbital elements,

1 00046U 60007B   21026.63427054  .00000008  00000-0  24642-4 0  9995
2 00046  66.6900 163.4770 0214715 323.2769  35.3784 14.49361240171451
Epoch (UTC): 26 January 2021 15:13:20
Eccentricity: 0.0214715
inclination: 66.6900°
perigee height: 575 km
apogee height: 880 km
right ascension of ascending node: 163.4770°
argument of perigee: 323.2769°
revolutions per day: 14.49361240
mean anomaly at epoch: 35.3784°
orbit number at epoch: 17145

The dashed part of the orbit path shows where the satellite is in the earth's shadow,  

DLR